Location: NJAA Observatory
(40.6819°N, 74.8979°W)
Time: 15:44:46
(UTC-05:00)

S-56A Canister/Altair - Visible Passes

Search period start: 25 February 2017 00:00
Search period end: 07 March 2017 00:00
Orbit: 639 x 2495 km, 38.9° (Epoch: 24 February)

Date Brightness Start Highest point End Pass type
(mag) Time Alt. Az. Time Alt. Az. Time Alt. Az.
25 Feb 8.5 18:32:14 10° W 18:38:23 79° S 18:46:30 15° E visible
25 Feb 9.0 20:35:30 10° W 20:43:06 65° SSW 20:43:56 63° S visible
25 Feb 10.8 22:39:38 10° W 22:41:23 17° W 22:41:23 17° W visible
26 Feb 8.8 20:03:19 10° W 20:10:26 67° SSW 20:13:16 48° SE visible
26 Feb 10.4 22:07:12 10° W 22:10:43 25° WSW 22:10:43 25° WSW visible
27 Feb 8.7 19:31:10 10° W 19:37:48 69° SSW 19:42:37 32° ESE visible
27 Feb 9.9 21:34:51 10° W 21:40:04 34° WSW 21:40:04 34° WSW visible
28 Feb 8.5 18:59:03 10° W 19:05:15 71° S 19:12:01 20° ESE visible
28 Feb 9.5 21:02:33 10° W 21:09:28 41° SSW 21:09:28 41° SSW visible
01 Mar 8.4 18:26:57 10° W 18:32:46 73° S 18:41:27 10° ESE visible
01 Mar 9.4 20:30:19 10° W 20:37:09 44° SSW 20:38:54 40° S visible
01 Mar 11.0 22:35:55 10° WSW 22:36:21 11° WSW 22:36:21 11° WSW visible
02 Mar 9.2 19:58:07 10° W 20:04:33 46° SSW 20:08:24 31° SSE visible
02 Mar 10.7 22:03:13 10° WSW 22:05:52 16° WSW 22:05:52 16° WSW visible
03 Mar 9.0 19:25:58 10° W 19:32:01 48° SSW 19:37:57 20° SE visible
03 Mar 10.4 21:30:39 10° WSW 21:35:25 21° SW 21:35:25 21° SW visible
04 Mar 8.9 18:53:50 10° W 18:59:31 50° SSW 19:07:35 11° SE visible
04 Mar 10.2 20:58:11 10° W 21:03:48 22° SSW 21:05:03 22° SSW visible
05 Mar 8.7 18:21:43 10° W 18:27:06 53° SSW 18:34:55 10° ESE visible
05 Mar 10.1 20:25:48 10° W 20:31:14 24° SSW 20:34:46 19° S visible
06 Mar 10.0 19:53:30 10° W 19:58:43 25° SSW 20:04:33 13° SSE visible
